TimeEDT,TemperatureF,Dew PointF,Humidity,Sea Level PressureIn,VisibilityMPH,Wind Direction,Wind SpeedMPH,Gust SpeedMPH,PrecipitationIn,Events,Conditions,WindDirDegrees,DateUTC
12:56 AM,66.0,62.1,87,29.85,10.0,Calm,Calm,-,N/A,,Clear,0,2013-06-17 04:56:00
1:56 AM,64.0,61.0,90,29.85,8.0,Calm,Calm,-,N/A,,Clear,0,2013-06-17 05:56:00
2:56 AM,64.0,61.0,90,29.86,9.0,Calm,Calm,-,N/A,,Clear,0,2013-06-17 06:56:00
3:56 AM,63.0,61.0,93,29.86,5.0,Calm,Calm,-,N/A,,Clear,0,2013-06-17 07:56:00
4:23 AM,62.6,60.8,94,29.87,1.8,South,3.5,-,N/A,,Clear,190,2013-06-17 08:23:00
4:34 AM,62.6,60.8,94,29.87,3.0,Calm,Calm,-,N/A,,Clear,0,2013-06-17 08:34:00
4:56 AM,62.1,59.0,90,29.87,4.0,Calm,Calm,-,N/A,,Clear,0,2013-06-17 08:56:00
5:56 AM,66.0,63.0,90,29.88,7.0,West,4.6,-,N/A,,Clear,270,2013-06-17 09:56:00
6:56 AM,68.0,64.0,87,29.88,9.0,West,4.6,-,N/A,,Clear,260,2013-06-17 10:56:00
7:56 AM,71.1,64.0,78,29.89,10.0,West,5.8,-,N/A,,Clear,270,2013-06-17 11:56:00
8:56 AM,73.9,64.0,71,29.89,10.0,West,6.9,-,N/A,,Clear,260,2013-06-17 12:56:00
9:56 AM,75.9,64.0,67,29.88,10.0,Variable,4.6,-,N/A,,Partly Cloudy,0,2013-06-17 13:56:00
10:56 AM,78.1,62.1,58,29.87,10.0,Variable,4.6,-,N/A,,Partly Cloudy,0,2013-06-17 14:56:00
11:56 AM,80.1,60.1,50,29.87,10.0,SW,8.1,-,N/A,,Scattered Clouds,220,2013-06-17 15:56:00
12:56 PM,81.0,60.1,49,29.86,10.0,Variable,4.6,-,N/A,,Scattered Clouds,0,2013-06-17 16:56:00
1:56 PM,82.0,59.0,45,29.84,10.0,WNW,10.4,19.6,N/A,,Mostly Cloudy,290,2013-06-17 17:56:00
2:56 PM,80.1,62.1,54,29.84,10.0,NNW,6.9,17.3,N/A,,Mostly Cloudy,340,2013-06-17 18:56:00
3:56 PM,82.9,62.1,49,29.82,10.0,NNW,5.8,-,N/A,,Scattered Clouds,330,2013-06-17 19:56:00
4:56 PM,82.9,61.0,47,29.82,10.0,Variable,4.6,-,N/A,,Partly Cloudy,0,2013-06-17 20:56:00
5:56 PM,82.9,59.0,44,29.83,10.0,SW,4.6,-,N/A,,Partly Cloudy,230,2013-06-17 21:56:00
6:56 PM,82.0,60.1,47,29.83,10.0,WSW,5.8,-,N/A,,Partly Cloudy,250,2013-06-17 22:56:00
7:56 PM,77.0,57.0,50,29.86,10.0,NE,3.5,-,N/A,,Partly Cloudy,40,2013-06-17 23:56:00
8:42 PM,75.2,57.2,53,29.88,10.0,East,3.5,-,N/A,Thunderstorm,Thunderstorm,90,2013-06-18 00:42:00
8:50 PM,71.6,60.8,69,29.92,2.0,NW,23.0,29.9,0.06,Rain-Thunderstorm,Heavy Thunderstorms and Rain,320,2013-06-18 00:50:00
8:56 PM,70.0,59.0,68,29.89,2.0,Variable,4.6,29.9,0.15,Rain-Thunderstorm,Thunderstorms and Rain,0,2013-06-18 00:56:00
9:02 PM,69.8,60.8,73,29.91,5.0,Variable,3.5,-,0.01,Rain-Thunderstorm,Light Thunderstorms and Rain,0,2013-06-18 01:02:00
9:30 PM,66.2,62.6,88,29.90,10.0,ESE,3.5,-,0.01,,Scattered Clouds,110,2013-06-18 01:30:00
9:56 PM,66.0,63.0,90,29.89,10.0,Calm,Calm,-,0.01,,Clear,0,2013-06-18 01:56:00
10:56 PM,64.0,63.0,96,29.90,6.0,SE,3.5,-,N/A,,Clear,140,2013-06-18 02:56:00
11:56 PM,66.0,62.1,87,29.90,10.0,Calm,Calm,-,N/A,,Clear,0,2013-06-18 03:56:00